When you browse on this site, cookies collect data to enhance your experience and personalize the content and advertising you see.
Visit our Privacy Policy to learn more. By continuing to use the site, you agree to this use of cookies and data.
  • en France
  • Liste des pays
  • À 7 jours
  • Température de l'eau
  • Carte météo
  • Widgets météo
  • user-avatar
    Se connecter

    Météo par heure à Trowbridge

    Ce jour, 21 Août, Mercredi

    Heure Température Précipitation Vent Pression Humidité
    00:00 +12°C° 0 mm 2 m/s 766 mmHg 94%
    01:00 +12°C° 0 mm 2 m/s 766 mmHg 94%
    02:00 +12°C° 0 mm 2 m/s 766 mmHg 94%
    03:00 +12°C° 0 mm 2 m/s 766 mmHg 94%
    04:00 +12°C° 0 mm 2 m/s 766 mmHg 94%
    05:00 +12°C° 0 mm 2 m/s 766 mmHg 93%
    06:00 +12°C° 0 mm 2 m/s 766 mmHg 93%
    07:00 +14°C° 0 mm 2 m/s 766 mmHg 86%
    08:00 +16°C° 0 mm 3 m/s 766 mmHg 79%
    09:00 +18°C° 0 mm 3 m/s 766 mmHg 72%
    10:00 +19°C° 0 mm 4 m/s 766 mmHg 68%
    11:00 +19°C° 0 mm 4 m/s 766 mmHg 64%
    12:00 +20°C° 0 mm 4 m/s 765 mmHg 60%
    13:00 +20°C° 0 mm 5 m/s 765 mmHg 61%
    14:00 +20°C° 0 mm 5 m/s 765 mmHg 61%
    15:00 +20°C° 0 mm 5 m/s 765 mmHg 61%
    16:00 +19°C° 0 mm 5 m/s 765 mmHg 66%
    17:00 +18°C° 0 mm 4 m/s 764 mmHg 70%
    18:00 +17°C° 0 mm 4 m/s 764 mmHg 75%
    19:00 +16°C° 0 mm 3 m/s 764 mmHg 79%
    20:00 +14°C° 0 mm 3 m/s 764 mmHg 84%
    21:00 +13°C° 0 mm 3 m/s 765 mmHg 89%
    22:00 +12°C° 0 mm 3 m/s 764 mmHg 90%
    23:00 +12°C° 0 mm 3 m/s 764 mmHg 91%

    Demain, 22 Août, Jeudi

    Heure Température Précipitation Vent Pression Humidité
    00:00 +12°C° 0 mm 3 m/s 764 mmHg 93%
    01:00 +11°C° 0 mm 3 m/s 764 mmHg 93%
    02:00 +11°C° 0 mm 3 m/s 764 mmHg 93%
    03:00 +11°C° 0 mm 3 m/s 763 mmHg 94%
    04:00 +11°C° 0 mm 3 m/s 764 mmHg 93%
    05:00 +11°C° 0 mm 3 m/s 764 mmHg 93%
    06:00 +12°C° 0 mm 3 m/s 764 mmHg 93%
    07:00 +14°C° 0 mm 3 m/s 764 mmHg 87%
    08:00 +15°C° 0 mm 4 m/s 764 mmHg 82%
    09:00 +18°C° 0 mm 4 m/s 764 mmHg 77%
    10:00 +19°C° 0 mm 4 m/s 764 mmHg 74%
    11:00 +20°C° 0 mm 4 m/s 764 mmHg 71%
    12:00 +21°C° 0 mm 4 m/s 764 mmHg 68%
    13:00 +21°C° 0.1 mm 4 m/s 764 mmHg 69%
    14:00 +21°C° 0.1 mm 4 m/s 764 mmHg 69%
    15:00 +21°C° 0.1 mm 4 m/s 764 mmHg 70%
    16:00 +21°C° 0.1 mm 4 m/s 764 mmHg 73%
    17:00 +20°C° 0.1 mm 3 m/s 764 mmHg 77%
    18:00 +19°C° 0.1 mm 3 m/s 764 mmHg 81%
    19:00 +18°C° 0 mm 3 m/s 764 mmHg 85%
    20:00 +17°C° 0 mm 2 m/s 765 mmHg 88%
    21:00 +16°C° 0 mm 1 m/s 765 mmHg 92%
    22:00 +16°C° 0 mm 1 m/s 765 mmHg 93%
    23:00 +15°C° 0 mm 1 m/s 765 mmHg 93%

    Après-demain, 23 Août, Vendredi

    Heure Température Précipitation Vent Pression Humidité
    00:00 +15°C° 0 mm 1 m/s 765 mmHg 93%
    01:00 +15°C° 0 mm 1 m/s 764 mmHg 93%
    02:00 +14°C° 0 mm 1 m/s 764 mmHg 93%
    03:00 +14°C° 0 mm 1 m/s 764 mmHg 93%
    04:00 +14°C° 0 mm 1 m/s 764 mmHg 93%
    05:00 +15°C° 0 mm 1 m/s 764 mmHg 92%
    06:00 +15°C° 0 mm 1 m/s 764 mmHg 92%
    07:00 +16°C° 0 mm 1 m/s 764 mmHg 85%
    08:00 +19°C° 0 mm 1 m/s 765 mmHg 79%
    09:00 +21°C° 0 mm 1 m/s 765 mmHg 73%
    10:00 +22°C° 0 mm 1 m/s 765 mmHg 69%
    11:00 +23°C° 0 mm 1 m/s 764 mmHg 64%
    12:00 +24°C° 0 mm 1 m/s 764 mmHg 59%
    13:00 +25°C° 0 mm 1 m/s 764 mmHg 59%
    14:00 +25°C° 0 mm 1 m/s 764 mmHg 58%
    15:00 +25°C° 0 mm 1 m/s 764 mmHg 57%
    16:00 +24°C° 0 mm 1 m/s 763 mmHg 62%
    17:00 +24°C° 0 mm 1 m/s 763 mmHg 67%
    18:00 +23°C° 0 mm 2 m/s 763 mmHg 72%
    19:00 +21°C° 0 mm 1 m/s 763 mmHg 76%
    20:00 +20°C° 0 mm 1 m/s 763 mmHg 81%
    21:00 +18°C° 0 mm 1 m/s 763 mmHg 86%
    22:00 +18°C° 0 mm 1 m/s 763 mmHg 87%
    23:00 +16°C° 0 mm 1 m/s 763 mmHg 87%

    24 Août, Samedi

    Heure Température Précipitation Vent Pression Humidité
    00:00 +16°C° 0 mm 1 m/s 762 mmHg 87%
    01:00 +16°C° 0 mm 1 m/s 762 mmHg 88%
    02:00 +15°C° 0 mm 1 m/s 762 mmHg 88%
    03:00 +15°C° 0 mm 1 m/s 761 mmHg 89%
    04:00 +15°C° 0 mm 1 m/s 761 mmHg 88%
    05:00 +15°C° 0 mm 1 m/s 761 mmHg 87%
    06:00 +15°C° 0 mm 1 m/s 761 mmHg 87%
    07:00 +17°C° 0 mm 2 m/s 761 mmHg 79%
    08:00 +19°C° 0 mm 2 m/s 761 mmHg 71%
    09:00 +21°C° 0 mm 2 m/s 762 mmHg 63%
    10:00 +23°C° 0 mm 2 m/s 761 mmHg 58%
    11:00 +25°C° 0 mm 2 m/s 761 mmHg 53%
    12:00 +26°C° 0 mm 2 m/s 761 mmHg 49%
    13:00 +26°C° 0 mm 2 m/s 761 mmHg 48%
    14:00 +27°C° 0 mm 2 m/s 761 mmHg 46%
    15:00 +27°C° 0 mm 2 m/s 760 mmHg 45%
    16:00 +26°C° 0 mm 2 m/s 760 mmHg 51%
    17:00 +25°C° 0 mm 1 m/s 760 mmHg 57%
    18:00 +24°C° 0 mm 1 m/s 760 mmHg 63%
    19:00 +23°C° 0 mm 1 m/s 760 mmHg 65%
    20:00 +22°C° 0 mm 1 m/s 760 mmHg 68%
    21:00 +18°C° 0 mm 0 m/s 760 mmHg 71%
    22:00 +20°C° 0 mm 1 m/s 760 mmHg 72%
    23:00 +19°C° 0 mm 1 m/s 760 mmHg 74%

    25 Août, Dimanche

    Heure Température Précipitation Vent Pression Humidité
    00:00 +19°C° 0 mm 1 m/s 760 mmHg 76%
    01:00 +19°C° 0 mm 1 m/s 760 mmHg 78%
    02:00 +18°C° 0 mm 1 m/s 760 mmHg 80%
    03:00 +18°C° 0 mm 1 m/s 760 mmHg 82%
    04:00 +18°C° 0 mm 1 m/s 760 mmHg 83%
    05:00 +18°C° 0 mm 1 m/s 760 mmHg 83%
    06:00 +18°C° 0 mm 1 m/s 760 mmHg 83%
    07:00 +20°C° 0 mm 1 m/s 761 mmHg 77%
    08:00 +22°C° 0 mm 1 m/s 761 mmHg 71%
    09:00 +24°C° 0 mm 2 m/s 761 mmHg 64%
    10:00 +25°C° 0 mm 2 m/s 761 mmHg 60%
    11:00 +26°C° 0 mm 2 m/s 761 mmHg 56%
    12:00 +28°C° 0 mm 2 m/s 761 mmHg 51%
    13:00 +28°C° 0 mm 2 m/s 761 mmHg 49%
    14:00 +29°C° 0 mm 2 m/s 761 mmHg 47%
    15:00 +29°C° 0 mm 2 m/s 761 mmHg 45%
    16:00 +28°C° 0 mm 2 m/s 761 mmHg 50%
    17:00 +27°C° 0 mm 1 m/s 761 mmHg 56%
    18:00 +26°C° 0 mm 1 m/s 761 mmHg 62%
    19:00 +25°C° 0 mm 1 m/s 761 mmHg 65%
    20:00 +23°C° 0 mm 1 m/s 762 mmHg 68%
    21:00 +21°C° 0 mm 1 m/s 762 mmHg 71%
    22:00 +19°C° 0 mm 0 m/s 762 mmHg 71%
    23:00 +18°C° 0 mm 0 m/s 762 mmHg 72%

    26 Août, Lundi

    Heure Température Précipitation Vent Pression Humidité
    00:00 +18°C° 0 mm 0 m/s 762 mmHg 72%
    01:00 +17°C° 0 mm 0 m/s 762 mmHg 72%
    02:00 +17°C° 0 mm 0 m/s 762 mmHg 72%
    03:00 +19°C° 0 mm 1 m/s 762 mmHg 72%
    04:00 +19°C° 0 mm 1 m/s 762 mmHg 73%
    05:00 +19°C° 0 mm 1 m/s 762 mmHg 73%
    06:00 +19°C° 0 mm 1 m/s 763 mmHg 73%
    07:00 +21°C° 0 mm 1 m/s 763 mmHg 68%
    08:00 +23°C° 0 mm 1 m/s 763 mmHg 62%
    09:00 +25°C° 0 mm 2 m/s 763 mmHg 57%
    10:00 +26°C° 0 mm 2 m/s 763 mmHg 53%
    11:00 +28°C° 0 mm 2 m/s 763 mmHg 49%
    12:00 +29°C° 0 mm 3 m/s 763 mmHg 46%
    13:00 +29°C° 0 mm 3 m/s 763 mmHg 46%
    14:00 +30°C° 0 mm 3 m/s 763 mmHg 47%
    15:00 +30°C° 0 mm 2 m/s 763 mmHg 47%
    16:00 +29°C° 0 mm 2 m/s 763 mmHg 53%
    17:00 +27°C° 0 mm 2 m/s 763 mmHg 58%
    18:00 +26°C° 0 mm 2 m/s 763 mmHg 64%
    19:00 +25°C° 0 mm 2 m/s 763 mmHg 67%
    20:00 +23°C° 0 mm 1 m/s 763 mmHg 69%
    21:00 +21°C° 0 mm 1 m/s 763 mmHg 72%
    22:00 +21°C° 0 mm 1 m/s 763 mmHg 70%
    23:00 +20°C° 0 mm 1 m/s 763 mmHg 69%
    Voir plus